Buffalo, NY

1:55 AM EST on November 17, 2019 (GMT -0500)
Buffalo Niagara International

Weather History for KBUF - September, 2019

Change the Weather History Date:

Saturday, September 14, 2019

  Actual Average Record
Temperature  
Mean Temperature 66 °F 63 °F  
Max Temperature 71 °F 72 °F 91 °F (1952)
Min Temperature 60 °F 54 °F 36 °F (1963)
Degree Days  
Heating Degree Days 0 4  
Month to date heating degree days 17 35  
Since 1 July heating degree days 20 62  
Cooling Degree Days 1 2  
Month to date cooling degree days 24 37  
Year to date cooling degree days 569 524  
Growing Degree Days 18 (Base 50)    
Moisture  
Dew Point 58 °F    
Average Humidity 72    
Maximum Humidity 87    
Minimum Humidity 57    
Precipitation  
Precipitation 0.30 in 0.14 in 4.89 in (1979)
Month to date precipitation 4.46 1.65  
Year to date precipitation 32.83 26.81  
Snow  
Snow 0.00 in 0.00 in 0.00 in ()
Month to date snowfall 0.0 0.0  
Since 1 July snowfall 0.0 0.0  
Since 1 September snowfall 0.0 0.0  
Snow Depth 0.00 in    
Sea Level Pressure  
Sea Level Pressure 30.12 in    
Wind  
Wind Speed 15 mph (SW)    
Max Wind Speed 26 mph    
Max Gust Speed 36 mph    
Visibility 9 miles    
Events Rain , Thunderstorm    
T = Trace of Precipitation, MM = Missing Value Source: NWS Daily Summary

Daily Weather History Graph

Daily Weather History Graph

Search for Another Location

Airport or City:

Astronomy

Sep. 14, 2019 Rise Set
Actual Time 6:53 AM EDT 7:27 PM EDT
Civil Twilight 6:24 AM EDT 7:55 PM EDT
Nautical Twilight 5:50 AM EDT 8:29 PM EDT
Astronomical Twilight 5:16 AM EDT 9:03 PM EDT
Moon 8:07 PM EDT (9/14) 7:04 AM EDT (9/14)
Length of Visible Light 13h 30m
Length of Day
12h 33m
Full, 100% of the Moon is Illuminated
Sep 14
Full
Sep 21
Last Quarter
Sep 28
New
Oct 5
First Quarter
Oct 13
Full

Hourly Weather History & Observations

Time (EDT) Temp. Dew Point Humidity Pressure Visibility Wind Dir Wind Speed Gust Speed Precip Events Conditions
12:54 AM 64.0 °F 60.1 °F 87% 30.07 in 10.0 mi SSW 11.5 mph - 0.04 in Rain Light Rain
1:16 AM 64.0 °F 60.1 °F 87% 30.09 in 2.5 mi SSW 19.6 mph - 0.09 in Rain , Thunderstorm Heavy Thunderstorms and Rain
1:26 AM 64.0 °F 61.0 °F 90% 30.09 in 3.0 mi SSW 15.0 mph 25.3 mph 0.19 in Rain , Thunderstorm Thunderstorms and Rain
1:46 AM 64.0 °F 61.0 °F 90% 30.09 in 4.0 mi SSW 11.5 mph - 0.28 in Rain Rain
1:54 AM 64.0 °F 61.0 °F 90% 30.09 in 10.0 mi SSW 11.5 mph - 0.29 in Rain Light Rain
2:54 AM 64.0 °F 61.0 °F 90% 30.06 in 10.0 mi South 10.4 mph - 0.01 in   Overcast
3:54 AM 66.0 °F 62.1 °F 87% 30.06 in 10.0 mi SSW 15.0 mph - N/A   Overcast
4:54 AM 66.9 °F 61.0 °F 81% 30.06 in 10.0 mi SSW 15.0 mph 24.2 mph N/A   Overcast
5:12 AM 66.9 °F 61.0 °F 81% 30.06 in 10.0 mi SSW 15.0 mph - N/A   Overcast
5:54 AM 66.9 °F 61.0 °F 81% 30.06 in 10.0 mi SSW 13.8 mph - N/A   Overcast
6:54 AM 66.9 °F 62.1 °F 84% 30.08 in 10.0 mi SW 11.5 mph - N/A   Mostly Cloudy
7:49 AM 66.2 °F 57.2 °F 73% 30.11 in 10.0 mi West 16.1 mph 25.3 mph N/A   Mostly Cloudy
8:54 AM 64.9 °F 55.0 °F 70% 30.13 in 10.0 mi WSW 12.7 mph - N/A   Mostly Cloudy
9:54 AM 66.0 °F 53.1 °F 63% 30.14 in 10.0 mi WSW 13.8 mph - N/A   Mostly Cloudy
10:54 AM 69.1 °F 54.0 °F 58% 30.14 in 10.0 mi WSW 17.3 mph 25.3 mph N/A   Mostly Cloudy
11:54 AM 69.1 °F 53.1 °F 57% 30.14 in 10.0 mi SW 21.9 mph 28.8 mph N/A   Mostly Cloudy
12:54 PM 70.0 °F 55.0 °F 59% 30.14 in 10.0 mi WSW 20.7 mph 32.2 mph N/A   Mostly Cloudy
1:54 PM 70.0 °F 55.9 °F 61% 30.14 in 10.0 mi WSW 20.7 mph 32.2 mph N/A   Mostly Cloudy
2:54 PM 70.0 °F 57.0 °F 63% 30.13 in 10.0 mi WSW 18.4 mph 31.1 mph N/A   Mostly Cloudy
3:54 PM 70.0 °F 57.0 °F 63% 30.12 in 10.0 mi WSW 21.9 mph 32.2 mph N/A   Mostly Cloudy
4:54 PM 70.0 °F 57.0 °F 63% 30.13 in 10.0 mi SW 20.7 mph 32.2 mph N/A   Scattered Clouds
5:54 PM 69.1 °F 57.9 °F 68% 30.13 in 10.0 mi WSW 18.4 mph 27.6 mph N/A   Scattered Clouds
6:54 PM 68.0 °F 57.9 °F 70% 30.14 in 10.0 mi WSW 17.3 mph 27.6 mph N/A   Partly Cloudy
7:54 PM 66.9 °F 57.9 °F 73% 30.14 in 10.0 mi WSW 11.5 mph 19.6 mph N/A   Partly Cloudy
8:54 PM 66.0 °F 57.9 °F 75% 30.16 in 10.0 mi WSW 11.5 mph - N/A   Partly Cloudy
9:54 PM 66.0 °F 59.0 °F 78% 30.17 in 10.0 mi WSW 9.2 mph - N/A   Partly Cloudy
10:54 PM 64.9 °F 59.0 °F 81% 30.17 in 10.0 mi WSW 8.1 mph - N/A   Partly Cloudy
11:54 PM 64.9 °F 57.9 °F 78% 30.17 in 10.0 mi West 8.1 mph - N/A   Partly Cloudy